VCP01T EGPH-EGAA

Flight info

Callsign VCP01T
Flight time 0h 38m
Altitude 22000
Route GOSAM P600 TRN/N0429F240 P600 BLACA DCT BELZU
Aircraft A319/M-SDE3FGHIRWY/LB1

Departure

Time 2026-04-22 11:55
Airport Edinburgh Airport (EGPH)

Arrival

Time 2026-04-22 12:33
Airport Belfast International Airport (EGAA)
Time Latitude Longitude Altitude Speed Heading
2026-04-22 11:18 55.94572 -3.36624 117 ft 0 kts 89°
2026-04-22 11:46 55.94573 -3.36663 115 ft 4 kts 104°
2026-04-22 11:46 55.94581 -3.36709 112 ft 4 kts 101°
2026-04-22 11:47 55.94580 -3.36741 114 ft 0 kts 44°
2026-04-22 11:50 55.94595 -3.36733 114 ft 4 kts 11°
2026-04-22 11:50 55.94643 -3.36735 116 ft 9 kts 359°
2026-04-22 11:50 55.94726 -3.36737 116 ft 14 kts 359°
2026-04-22 11:50 55.94830 -3.36778 116 ft 18 kts
2026-04-22 11:51 55.94913 -3.36823 116 ft 10 kts 327°
2026-04-22 11:51 55.94918 -3.36898 116 ft 7 kts 257°
2026-04-22 11:51 55.94889 -3.37005 113 ft 12 kts 239°
2026-04-22 11:51 55.94836 -3.37159 116 ft 17 kts 239°
2026-04-22 11:52 55.94766 -3.37367 114 ft 22 kts 239°
2026-04-22 11:52 55.94683 -3.37612 114 ft 24 kts 239°
2026-04-22 11:52 55.94598 -3.37863 114 ft 24 kts 239°
2026-04-22 11:52 55.94507 -3.38130 116 ft 25 kts 239°
2026-04-22 11:53 55.94417 -3.38397 113 ft 26 kts 239°
2026-04-22 11:53 55.94322 -3.38676 115 ft 23 kts 239°
2026-04-22 11:53 55.94284 -3.38850 116 ft 11 kts 298°
2026-04-22 11:53 55.94347 -3.38932 115 ft 12 kts 329°
2026-04-22 11:54 55.94405 -3.38981 114 ft 5 kts
2026-04-22 11:54 55.94422 -3.38953 112 ft 0 kts 59°
2026-04-22 11:54 55.94423 -3.38951 112 ft 2 kts 59°
2026-04-22 11:55 55.94521 -3.38657 113 ft 68 kts 59°
2026-04-22 11:55 55.94904 -3.37531 124 ft 139 kts 59°
2026-04-22 11:55 55.95425 -3.35960 749 ft 150 kts 60°
2026-04-22 11:55 55.95975 -3.34389 1626 ft 151 kts 55°
2026-04-22 11:56 55.96779 -3.33113 2378 ft 162 kts 41°
2026-04-22 11:56 55.97689 -3.31710 2903 ft 186 kts 45°
2026-04-22 11:56 55.98705 -3.30051 3518 ft 210 kts 46°
2026-04-22 11:56 55.99943 -3.28382 4118 ft 241 kts 26°
2026-04-22 11:57 56.01697 -3.28138 4826 ft 271 kts 348°
2026-04-22 11:57 56.03336 -3.29892 5776 ft 284 kts 311°
2026-04-22 11:57 56.04265 -3.33054 6357 ft 296 kts 277°
2026-04-22 11:57 56.04081 -3.36619 7580 ft 287 kts 250°
2026-04-22 11:58 56.03360 -3.39937 8722 ft 286 kts 242°
2026-04-22 11:58 56.02522 -3.43192 9796 ft 290 kts 242°
2026-04-22 11:58 56.01665 -3.46489 10785 ft 297 kts 241°
2026-04-22 11:58 56.00791 -3.50013 11220 ft 323 kts 246°
2026-04-22 11:59 56.00066 -3.53982 11586 ft 349 kts 251°
2026-04-22 11:59 55.99449 -3.58301 12107 ft 366 kts 254°
2026-04-22 11:59 55.98886 -3.62772 12954 ft 371 kts 255°
2026-04-22 11:59 55.98324 -3.67285 13864 ft 374 kts 254°
2026-04-22 12:00 55.97737 -3.71831 14726 ft 377 kts 254°
2026-04-22 12:00 55.97117 -3.76401 15504 ft 380 kts 253°
2026-04-22 12:00 55.96468 -3.80992 16277 ft 384 kts 252°
2026-04-22 12:00 55.95794 -3.85630 17037 ft 388 kts 252°
2026-04-22 12:01 55.95103 -3.90313 17789 ft 392 kts 252°
2026-04-22 12:01 55.94404 -3.95034 18549 ft 396 kts 252°
2026-04-22 12:01 55.93463 -3.99646 19200 ft 396 kts 239°
2026-04-22 12:01 55.91884 -4.03627 19861 ft 394 kts 224°
2026-04-22 12:02 55.89780 -4.06731 20512 ft 394 kts 213°
2026-04-22 12:02 55.87516 -4.09503 21177 ft 396 kts 213°
2026-04-22 12:02 55.85241 -4.12282 21781 ft 398 kts 214°
2026-04-22 12:02 55.82943 -4.15084 22370 ft 402 kts 214°
2026-04-22 12:03 55.80628 -4.17901 22943 ft 405 kts 214°
2026-04-22 12:03 55.78295 -4.20742 23479 ft 408 kts 215°
2026-04-22 12:03 55.75951 -4.23625 24013 ft 412 kts 216°
2026-04-22 12:03 55.73593 -4.26552 24394 ft 416 kts 217°
2026-04-22 12:04 55.71221 -4.29512 24496 ft 420 kts 217°
2026-04-22 12:04 55.68791 -4.32548 24520 ft 433 kts 217°
2026-04-22 12:04 55.66307 -4.35640 24498 ft 438 kts 217°
2026-04-22 12:04 55.63809 -4.38733 24497 ft 439 kts 217°
2026-04-22 12:05 55.61294 -4.41832 24489 ft 440 kts 217°
2026-04-22 12:05 55.58778 -4.44919 24488 ft 441 kts 217°
2026-04-22 12:05 55.56255 -4.48008 24489 ft 441 kts 217°
2026-04-22 12:05 55.53733 -4.51096 24489 ft 441 kts 217°
2026-04-22 12:06 55.51214 -4.54185 24491 ft 441 kts 217°
2026-04-22 12:06 55.48690 -4.57276 24492 ft 441 kts 217°
2026-04-22 12:06 55.46170 -4.60359 24487 ft 441 kts 218°
2026-04-22 12:06 55.43650 -4.63441 24487 ft 441 kts 218°
2026-04-22 12:07 55.41130 -4.66517 24477 ft 441 kts 218°
2026-04-22 12:07 55.38607 -4.69586 24477 ft 441 kts 218°
2026-04-22 12:07 55.36086 -4.72642 24474 ft 440 kts 218°
2026-04-22 12:07 55.33562 -4.75692 24472 ft 440 kts 218°
2026-04-22 12:08 55.30996 -4.78633 24465 ft 442 kts 213°
2026-04-22 12:08 55.28255 -4.81105 24461 ft 444 kts 210°
2026-04-22 12:08 55.25493 -4.83531 24456 ft 443 kts 210°
2026-04-22 12:08 55.22736 -4.85949 24453 ft 443 kts 210°
2026-04-22 12:09 55.19948 -4.88395 24272 ft 455 kts 210°
2026-04-22 12:09 55.17101 -4.90892 24030 ft 459 kts 210°
2026-04-22 12:09 55.14249 -4.93384 23754 ft 459 kts 210°
2026-04-22 12:09 55.11402 -4.95868 23470 ft 457 kts 209°
2026-04-22 12:10 55.08559 -4.98347 23193 ft 455 kts 209°
2026-04-22 12:10 55.05732 -5.00812 22913 ft 453 kts 209°
2026-04-22 12:10 55.02916 -5.03264 22643 ft 451 kts 208°
2026-04-22 12:10 55.00110 -5.05698 22372 ft 450 kts 208°
2026-04-22 12:11 54.97313 -5.08122 22105 ft 448 kts 208°
2026-04-22 12:11 54.94536 -5.10544 21837 ft 445 kts 210°
2026-04-22 12:11 54.91944 -5.13446 21570 ft 441 kts 219°
2026-04-22 12:11 54.89690 -5.17019 21308 ft 438 kts 228°
2026-04-22 12:12 54.87821 -5.21171 21061 ft 436 kts 237°
2026-04-22 12:12 54.86382 -5.25789 20807 ft 434 kts 246°
2026-04-22 12:12 54.85336 -5.30681 20253 ft 430 kts 250°
2026-04-22 12:12 54.84342 -5.35586 19220 ft 430 kts 249°
2026-04-22 12:13 54.83345 -5.40467 18256 ft 428 kts 249°
2026-04-22 12:13 54.82350 -5.45313 17351 ft 424 kts 248°
2026-04-22 12:13 54.81365 -5.50101 16491 ft 420 kts 248°
2026-04-22 12:13 54.80387 -5.54854 15657 ft 417 kts 248°
2026-04-22 12:14 54.79414 -5.59577 14846 ft 415 kts 248°
2026-04-22 12:14 54.78445 -5.64267 14038 ft 412 kts 247°
2026-04-22 12:14 54.77479 -5.68921 13225 ft 409 kts 247°
2026-04-22 12:14 54.76520 -5.73530 12457 ft 405 kts 247°
2026-04-22 12:15 54.75569 -5.78096 11751 ft 400 kts 247°
2026-04-22 12:15 54.74653 -5.82512 11581 ft 380 kts 246°
2026-04-22 12:15 54.73787 -5.86702 11451 ft 360 kts 246°
2026-04-22 12:15 54.72963 -5.90673 11330 ft 342 kts 246°
2026-04-22 12:16 54.72172 -5.94452 11200 ft 326 kts 245°
2026-04-22 12:16 54.71413 -5.98058 11080 ft 312 kts 245°
2026-04-22 12:16 54.70682 -6.01519 10941 ft 301 kts 245°
2026-04-22 12:16 54.69970 -6.04883 10695 ft 295 kts 245°
2026-04-22 12:17 54.69265 -6.08200 10447 ft 293 kts 244°
2026-04-22 12:17 54.68558 -6.11501 10282 ft 293 kts 244°
2026-04-22 12:17 54.67848 -6.14804 10157 ft 293 kts 244°
2026-04-22 12:17 54.67141 -6.18104 10022 ft 293 kts 244°
2026-04-22 12:18 54.66436 -6.21477 9512 ft 298 kts 248°
2026-04-22 12:18 54.66087 -6.24987 9100 ft 302 kts 263°
2026-04-22 12:18 54.66036 -6.28685 8487 ft 302 kts 265°
2026-04-22 12:18 54.66179 -6.32263 7939 ft 298 kts 276°
2026-04-22 12:19 54.66555 -6.35787 7487 ft 298 kts 278°
2026-04-22 12:19 54.66946 -6.39295 7069 ft 297 kts 278°
2026-04-22 12:19 54.67461 -6.42724 6808 ft 290 kts 287°
2026-04-22 12:19 54.68114 -6.45945 6671 ft 278 kts 288°
2026-04-22 12:20 54.68760 -6.49022 6538 ft 267 kts 290°
2026-04-22 12:20 54.69557 -6.51847 6409 ft 256 kts 295°
2026-04-22 12:20 54.69952 -6.54724 6269 ft 241 kts 265°
2026-04-22 12:20 54.69842 -6.57542 6104 ft 232 kts 258°
2026-04-22 12:21 54.69538 -6.60239 5865 ft 226 kts 248°
2026-04-22 12:21 54.69079 -6.62831 5592 ft 225 kts 246°
2026-04-22 12:21 54.68593 -6.65397 5367 ft 224 kts 245°
2026-04-22 12:21 54.68107 -6.67943 5106 ft 223 kts 245°
2026-04-22 12:22 54.67622 -6.70479 4870 ft 222 kts 245°
2026-04-22 12:22 54.66929 -6.72776 4629 ft 210 kts 220°
2026-04-22 12:22 54.65805 -6.74202 4483 ft 194 kts 194°
2026-04-22 12:22 54.64542 -6.74621 4351 ft 180 kts 171°
2026-04-22 12:23 54.63368 -6.74154 4231 ft 170 kts 149°
2026-04-22 12:23 54.62409 -6.73034 4097 ft 165 kts 138°
2026-04-22 12:23 54.61511 -6.71818 3971 ft 164 kts 139°
2026-04-22 12:23 54.60617 -6.70620 3841 ft 161 kts 139°
2026-04-22 12:24 54.59744 -6.69456 3699 ft 156 kts 139°
2026-04-22 12:24 54.58891 -6.68313 3531 ft 155 kts 139°
2026-04-22 12:24 54.58034 -6.67163 3358 ft 157 kts 139°
2026-04-22 12:24 54.57173 -6.66005 3197 ft 157 kts 138°
2026-04-22 12:25 54.56318 -6.64821 2975 ft 157 kts 132°
2026-04-22 12:25 54.55685 -6.63312 2761 ft 156 kts 115°
2026-04-22 12:25 54.55393 -6.61515 2604 ft 156 kts 96°
2026-04-22 12:25 54.55476 -6.59648 2544 ft 156 kts 79°
2026-04-22 12:26 54.55879 -6.57981 2487 ft 145 kts 69°
2026-04-22 12:26 54.56291 -6.56496 2482 ft 130 kts 70°
2026-04-22 12:26 54.56666 -6.55123 2493 ft 124 kts 70°
2026-04-22 12:26 54.57027 -6.53797 2503 ft 121 kts 70°
2026-04-22 12:27 54.57380 -6.52498 2501 ft 119 kts 70°
2026-04-22 12:27 54.57731 -6.51204 2496 ft 120 kts 70°
2026-04-22 12:27 54.58086 -6.49896 2504 ft 121 kts 71°
2026-04-22 12:27 54.58441 -6.48582 2504 ft 121 kts 71°
2026-04-22 12:28 54.58797 -6.47269 2510 ft 120 kts 71°
2026-04-22 12:28 54.59142 -6.46001 2518 ft 115 kts 70°
2026-04-22 12:28 54.59480 -6.44761 2512 ft 114 kts 70°
2026-04-22 12:28 54.59815 -6.43525 2513 ft 114 kts 70°
2026-04-22 12:29 54.60151 -6.42290 2507 ft 114 kts 71°
2026-04-22 12:29 54.60488 -6.41051 2435 ft 114 kts 71°
2026-04-22 12:29 54.60823 -6.39817 2266 ft 113 kts 70°
2026-04-22 12:29 54.61156 -6.38587 2074 ft 113 kts 70°
2026-04-22 12:30 54.61820 -6.36140 1771 ft 113 kts 70°
2026-04-22 12:30 54.62150 -6.34915 1619 ft 112 kts 70°
2026-04-22 12:30 54.62482 -6.33688 1470 ft 113 kts 70°
2026-04-22 12:31 54.62813 -6.32465 1337 ft 112 kts 71°
2026-04-22 12:31 54.63137 -6.31243 1165 ft 113 kts 70°
2026-04-22 12:31 54.63459 -6.30013 1057 ft 113 kts 71°
2026-04-22 12:31 54.63787 -6.28770 939 ft 115 kts 69°
2026-04-22 12:32 54.64127 -6.27528 748 ft 114 kts 68°
2026-04-22 12:32 54.64814 -6.25062 485 ft 113 kts 70°
2026-04-22 12:32 54.65150 -6.23826 355 ft 113 kts 70°
2026-04-22 12:33 54.65474 -6.22616 281 ft 104 kts 71°
2026-04-22 12:33 54.65655 -6.21929 272 ft 82 kts 65°
2026-04-22 12:33 54.65835 -6.21260 272 ft 51 kts 65°
2026-04-22 12:33 54.65971 -6.20757 275 ft 42 kts 65°
2026-04-22 12:34 54.66081 -6.20347 272 ft 35 kts 65°
2026-04-22 12:34 54.66176 -6.19995 274 ft 30 kts 64°
2026-04-22 12:34 54.66256 -6.19698 277 ft 15 kts 61°
2026-04-22 12:34 54.66342 -6.19694 272 ft 14 kts 335°
2026-04-22 12:35 54.66395 -6.19831 272 ft 15 kts 269°
2026-04-22 12:35 54.66358 -6.20002 272 ft 16 kts 247°
2026-04-22 12:35 54.66309 -6.20180 276 ft 17 kts 244°
2026-04-22 12:35 54.66258 -6.20368 273 ft 18 kts 245°
2026-04-22 12:36 54.66205 -6.20568 275 ft 19 kts 245°
2026-04-22 12:36 54.66149 -6.20776 272 ft 20 kts 245°
2026-04-22 12:36 54.66101 -6.20949 272 ft 10 kts 244°
2026-04-22 12:36 54.66072 -6.21061 273 ft 11 kts 246°
2026-04-22 12:37 54.66034 -6.21204 273 ft 14 kts 245°
2026-04-22 12:37 54.65991 -6.21366 274 ft 15 kts 245°
2026-04-22 12:37 54.65949 -6.21534 274 ft 14 kts 259°
2026-04-22 12:37 54.66012 -6.21637 275 ft 13 kts 334°
2026-04-22 12:38 54.66049 -6.21725 272 ft 7 kts 282°
2026-04-22 12:38 54.66057 -6.21780 274 ft 2 kts 285°
2026-04-22 12:38 54.66059 -6.21794 274 ft 0 kts 285°
2026-04-22 12:44 54.66059 -6.21795 275 ft 0 kts 285°